Weather History for Kalaeloa, HI

Change the Weather History Date:

Thursday, December 27, 2012

  Actual Average (PHNL) Record (PHNL)
Temperature  
Mean Temperature 74 °F 74 °F  
Max Temperature 81 °F 81 °F 87 °F (2006)
Min Temperature 66 °F 67 °F 59 °F (1978)
Degree Days  
Heating Degree Days 0 0  
Month to date heating degree days 0  
Since 1 July heating degree days 0  
Cooling Degree Days 8 9  
Month to date cooling degree days 267  
Year to date cooling degree days 4593  
Growing Degree Days 24 (Base 50)    
Moisture  
Dew Point 62 °F    
Average Humidity 70    
Maximum Humidity 84    
Minimum Humidity 47    
Precipitation  
Precipitation 0.00 in 0.11 in 3.34 in (2004)
Month to date precipitation 2.81  
Year to date precipitation 16.67  
Snow  
Snow 0.00 in - - ()
Month to date snowfall  
Since 1 July snowfall  
Snow Depth -    
Sea Level Pressure  
Sea Level Pressure 30.03 in    
Wind  
Wind Speed 4 mph (East)    
Max Wind Speed 12 mph    
Max Gust Speed 23 mph    
Visibility 10 miles    
Events      
T = Trace of Precipitation, MM = Missing Value Source: NWS Daily Summary

Daily Weather History Graph

Daily Weather History Graph

Search for Another Location

Airport:

Trip Planner

Search our weather history database for the weather conditions in past years. The results will help you decide how hot, cold, wet, or windy it might be!

Date:

Astronomy

Dec. 27, 2012 Rise Set
Actual Time 7:08 AM HST 5:59 PM HST
Civil Twilight 6:44 AM HST 6:23 PM HST
Nautical Twilight 6:16 AM HST 6:51 PM HST
Astronomical Twilight 5:49 AM HST 7:18 PM HST
Moon 5:47 PM HST (12/27) 6:31 AM HST (12/27)
Length of Visible Light 11h 39m
Length of Day
10h 50m
Full, 100% of the Moon is Illuminated
Dec 27
Full
Dec 28
Full
Jan 4
Last Quarter
Jan 11
New
Jan 18
First Quarter

Hourly Weather History & Observations

Time (HST) Temp. Heat Index Dew Point Humidity Pressure Visibility Wind Dir Wind Speed Gust Speed Precip Events Conditions
12:53 AM 69.1 °F - 61.0 °F 75% 30.09 in 10.0 mi Variable 3.5 mph - N/A   Clear
1:53 AM 68.0 °F - 61.0 °F 78% 30.08 in 10.0 mi Variable 3.5 mph - N/A   Clear
2:53 AM 69.1 °F - 62.1 °F 78% 30.06 in 10.0 mi Calm Calm - N/A   Clear
3:53 AM 68.0 °F - 62.1 °F 81% 30.05 in 10.0 mi ENE 3.5 mph - N/A   Clear
4:53 AM 68.0 °F - 61.0 °F 78% 30.04 in 10.0 mi Variable 3.5 mph - N/A   Clear
5:53 AM 66.9 °F - 61.0 °F 81% 30.03 in 10.0 mi Calm Calm - N/A   Clear
6:21 AM 66.2 °F - 60.8 °F 83% 30.02 in 10.0 mi ENE 3.5 mph - N/A   Scattered Clouds
6:30 AM 68.0 °F - 62.6 °F 83% 30.01 in 10.0 mi ENE 4.6 mph - N/A   Mostly Cloudy
6:40 AM 68.0 °F - 62.6 °F 83% 30.01 in 10.0 mi Variable 3.5 mph - N/A   Mostly Cloudy
6:53 AM 66.9 °F - 62.1 °F 84% 30.04 in 10.0 mi Calm Calm - N/A   Overcast
7:03 AM 66.2 °F - 60.8 °F 83% 30.02 in 10.0 mi Variable 3.5 mph - N/A   Partly Cloudy
7:53 AM 70.0 °F - 62.1 °F 76% 30.05 in 10.0 mi ENE 3.5 mph - N/A   Partly Cloudy
8:53 AM 75.9 °F - 63.0 °F 64% 30.06 in 10.0 mi Variable 3.5 mph - N/A   Clear
9:53 AM 78.1 °F - 62.1 °F 58% 30.05 in 10.0 mi East 8.1 mph 21.9 mph N/A   Partly Cloudy
10:53 AM 79.0 °F - 63.0 °F 58% 30.05 in 10.0 mi ESE 11.5 mph 23.0 mph N/A   Scattered Clouds
11:53 AM 81.0 °F 82.2 °F 63.0 °F 54% 30.03 in 10.0 mi SE 9.2 mph - N/A   Scattered Clouds
12:53 PM 81.0 °F 81.7 °F 61.0 °F 50% 30.00 in 10.0 mi ESE 10.4 mph 17.3 mph N/A   Clear
1:53 PM 79.0 °F - 63.0 °F 58% 29.98 in 10.0 mi SE 10.4 mph 17.3 mph N/A   Clear
2:53 PM 79.0 °F - 63.0 °F 58% 29.96 in 10.0 mi SE 9.2 mph 18.4 mph N/A   Clear
3:53 PM 81.0 °F 81.3 °F 59.0 °F 47% 29.96 in 10.0 mi Variable 4.6 mph - N/A   Clear
4:53 PM 79.0 °F - 62.1 °F 56% 29.97 in 10.0 mi East 4.6 mph - N/A   Scattered Clouds
5:53 PM 75.9 °F - 61.0 °F 60% 29.99 in 10.0 mi ENE 4.6 mph - N/A   Clear
6:53 PM 72.0 °F - 61.0 °F 68% 30.01 in 10.0 mi Calm Calm - N/A   Clear
7:53 PM 71.1 °F - 61.0 °F 70% 30.03 in 10.0 mi Calm Calm - N/A   Clear
8:53 PM 69.1 °F - 61.0 °F 75% 30.03 in 10.0 mi Calm Calm - N/A   Clear
9:53 PM 69.1 °F - 61.0 °F 75% 30.03 in 10.0 mi Calm Calm - N/A   Clear
10:53 PM 69.1 °F - 60.1 °F 73% 30.03 in 10.0 mi Calm Calm - N/A   Clear
11:53 PM 68.0 °F - 60.1 °F 76% 30.02 in 10.0 mi Calm Calm - N/A   Clear